Location: Titusville
(28.6119°N, 80.8078°W)
Time: 20:43:07
(UTC-04:00)

Hubble Space Telescope - Visible Passes

Search period start: 19 October 2018 00:00
Search period end: 29 October 2018 00:00
Orbit: 537 x 541 km, 28.5° (Epoch: 19 October)

Date Brightness Start Highest point End Pass type
(mag) Time Alt. Az. Time Alt. Az. Time Alt. Az.
19 Oct 2.9 05:10:18 26° E 05:10:18 26° E 05:12:12 10° E visible
19 Oct 0.7 06:45:39 13° W 06:49:17 88° S 06:53:25 10° E visible
20 Oct 3.4 05:00:33 19° E 05:00:33 19° E 05:01:49 10° E visible
20 Oct 0.7 06:35:54 18° W 06:38:54 85° S 06:43:03 10° E visible
21 Oct 3.8 04:50:49 14° E 04:50:49 14° E 04:51:26 10° E visible
21 Oct 0.7 06:26:10 25° W 06:28:31 79° S 06:32:38 10° ESE visible
22 Oct 0.8 06:16:26 33° W 06:18:07 71° S 06:22:14 10° ESE visible
23 Oct 0.9 06:06:43 45° WSW 06:07:43 62° SSW 06:11:47 10° ESE visible
24 Oct 1.0 05:57:01 51° SSW 05:57:18 53° SSW 06:01:19 10° ESE visible
25 Oct 1.5 05:47:22 42° S 05:47:22 42° S 05:50:48 10° SE visible
26 Oct 2.3 05:37:44 28° SSE 05:37:44 28° SSE 05:40:13 10° SE visible
27 Oct 3.0 05:28:09 18° SSE 05:28:09 18° SSE 05:29:35 10° SE visible
28 Oct 3.6 05:18:36 11° SSE 05:18:36 11° SSE 05:18:50 10° SSE visible
